Weather History for Ardmore, OK

Change the Weather History Date:

Thursday, August 9, 2012

  Actual Average Record
Temperature  
Mean Temperature 88 °F -  
Max Temperature 107 °F 92 °F 107 °F (1999)
Min Temperature 69 °F 70 °F 62 °F (1997)
Cooling Degree Days 23    
Growing Degree Days 38 (Base 50)    
Moisture  
Dew Point 66 °F    
Average Humidity 76    
Maximum Humidity 100    
Minimum Humidity 19    
Precipitation  
Precipitation 0.00 in - - ()
Sea Level Pressure  
Sea Level Pressure 29.91 in    
Wind  
Wind Speed 2 mph (WSW)    
Max Wind Speed 18 mph    
Max Gust Speed 22 mph    
Visibility 10 miles    
Events      
Averages and records for this station are not official NWS values.
T = Trace of Precipitation, MM = Missing Value Source: NWS Daily Summary

Daily Weather History Graph

Daily Weather History Graph

Search for Another Location

Airport:

Trip Planner

Search our weather history database for the weather conditions in past years. The results will help you decide how hot, cold, wet, or windy it might be!

Date:

Astronomy

Aug. 09, 2012 Rise Set
Actual Time 6:45 AM CDT 8:21 PM CDT
Civil Twilight 6:18 AM CDT 8:48 PM CDT
Nautical Twilight 5:45 AM CDT 9:20 PM CDT
Astronomical Twilight 5:11 AM CDT 9:54 PM CDT
Moon No Moon Rise 2:04 PM CDT (8/9)
Length of Visible Light 14h 29m
Length of Day
13h 36m
Waning Gibbous, 51% of the Moon is Illuminated
Aug 9
Waning Gibbous
Aug 9
Last Quarter
Aug 17
New
Aug 24
First Quarter
Aug 31
Full

Hourly Weather History & Observations

Time (CDT) Temp. Heat Index Dew Point Humidity Pressure Visibility Wind Dir Wind Speed Gust Speed Precip Events Conditions
12:15 AM 71.6 °F - 69.8 °F 94% 29.95 in 10.0 mi Calm Calm - N/A   Clear
12:35 AM 71.6 °F - 69.8 °F 94% 29.95 in 10.0 mi Calm Calm - N/A   Clear
12:55 AM 71.6 °F - 69.8 °F 94% 29.95 in 10.0 mi Calm Calm - N/A   Clear
1:15 AM 71.6 °F - 69.8 °F 94% 29.94 in 10.0 mi Calm Calm - N/A   Clear
1:35 AM 71.6 °F - 69.8 °F 94% 29.93 in 10.0 mi Calm Calm - N/A   Clear
1:55 AM 71.6 °F - 68.0 °F 88% 29.93 in 10.0 mi West 3.5 mph - N/A   Clear
2:15 AM 71.6 °F - 68.0 °F 88% 29.93 in 10.0 mi Calm Calm - N/A   Clear
2:35 AM 69.8 °F - 69.8 °F 100% 29.93 in 10.0 mi Calm Calm - N/A   Clear
2:55 AM 69.8 °F - 69.8 °F 100% 29.92 in 10.0 mi Calm Calm - N/A   Clear
3:15 AM 69.8 °F - 68.0 °F 94% 29.92 in 10.0 mi Calm Calm - N/A   Clear
3:35 AM 71.6 °F - 68.0 °F 88% 29.93 in 10.0 mi SSW 4.6 mph - N/A   Clear
3:55 AM 73.4 °F - 68.0 °F 83% 29.93 in 10.0 mi SW 4.6 mph - N/A   Clear
4:15 AM 71.6 °F - 68.0 °F 88% 29.93 in 10.0 mi South 5.8 mph - N/A   Clear
4:35 AM 73.4 °F - 68.0 °F 83% 29.94 in 10.0 mi SSW 3.5 mph - N/A   Clear
4:55 AM 71.6 °F - 68.0 °F 88% 29.93 in 10.0 mi South 4.6 mph - N/A   Clear
5:15 AM 71.6 °F - 68.0 °F 88% 29.93 in 10.0 mi South 4.6 mph - N/A   Clear
5:35 AM 69.8 °F - 68.0 °F 94% 29.94 in 10.0 mi East 3.5 mph - N/A   Clear
5:55 AM 69.8 °F - 68.0 °F 94% 29.94 in 10.0 mi SE 4.6 mph - N/A   Clear
6:15 AM 69.8 °F - 68.0 °F 94% 29.94 in 10.0 mi Calm Calm - N/A   Clear
6:35 AM 69.8 °F - 68.0 °F 94% 29.94 in 10.0 mi Calm Calm - N/A   Clear
7:55 AM 73.4 °F - 69.8 °F 88% 29.94 in 10.0 mi Calm Calm - N/A   Clear
11:55 AM 100.4 °F 106.3 °F 68.0 °F 35% 29.90 in 10.0 mi North 3.5 mph 18.4 mph N/A   Clear
3:55 PM 107.6 °F 108.2 °F 59.0 °F 20% 29.81 in 10.0 mi NW 11.5 mph - N/A   Clear
4:55 PM 104.0 °F 103.4 °F 57.2 °F 21% 29.79 in 10.0 mi North 11.5 mph 16.1 mph N/A   Clear
5:55 PM 105.8 °F 105.5 °F 57.2 °F 20% 29.79 in 10.0 mi NNW 18.4 mph 21.9 mph N/A   Clear
6:55 PM 104.0 °F 102.3 °F 53.6 °F 19% 29.87 in 10.0 mi NNW 11.5 mph - N/A   Clear
11:35 PM 82.4 °F 81.7 °F 55.4 °F 39% 29.88 in 10.0 mi North 3.5 mph - N/A   Clear
11:55 PM 80.6 °F 80.5 °F 55.4 °F 42% 29.88 in 10.0 mi Calm Calm - N/A   Clear